[[{"header":{"parameterUnit":"m.s-1","parameterCategory":1,"la1":30.2991,"la2":30.254,"lo1":-89.0895,"lo2":-89.0444,"dy":0.0017,"dx":0.0017,"nx":28,"ny":28,"refTime":"2025-03-17T09:00:00:Z","depth":0,"parameterNumber":2,"parameterNumberName":"U-component_of_WINDS"},"data":[0,0,0,0,0,0,0,0,0,0,0,0,0,0,0,0,0,0,0,0,0,0,0,0,0,0,0,0,0,0,0,0,0,0,0,0,0,0,0,0,0,0,0,0,0,0,0,0,0,0,0,0,0,0,0,0,0,0,-0.7823,-0.7824,0,-0.7857,-0.7857,-0.7858,-0.7872,-0.7872,-0.7872,-0.7872,-0.7908,-0.7909,-0.791,0,0,0,0,0,0,0,0,0,0,0,0,0,-0.7774,-0.7775,-0.7823,-0.7824,-0.7824,-0.7857,-0.7857,-0.7858,-0.7872,-0.7872,-0.7872,-0.7872,-0.7908,-0.7909,-0.791,0,0,0,0,0,0,0,0,0,0,0,0,0,-0.78,-0.7775,-0.7823,-0.7835,-0.7837,-0.7857,-0.7857,-0.7858,-0.7873,-0.7872,-0.7872,-0.7872,-0.7908,-0.7909,-0.7911,-0.7922,0,0,-0.7915,-0.7916,0,0,0,0,0,0,0,0,-0.7799,-0.7802,-0.7833,-0.7834,-0.7836,-0.786,-0.7853,-0.7879,-0.7873,-0.7859,-0.7872,-0.7872,-0.7893,-0.7895,-0.7902,-0.7923,-0.7925,-0.7915,-0.7916,-0.7917,-0.7917,0,0,0,0,0,0,0,-0.7797,-0.7801,-0.7837,-0.7834,-0.7835,-0.784,-0.7843,-0.7858,-0.7876,-0.786,-0.7861,-0.7865,-0.7893,-0.79,-0.7903,-0.7925,-0.7915,-0.7917,-0.7918,-0.7918,-0.7959,-0.7959,0,0,0,0,0,0,-0.7793,-0.7799,-0.7836,-0.7838,-0.7817,-0.7841,-0.7845,-0.7853,-0.7876,-0.7879,-0.7865,-0.7866,-0.7898,-0.7901,-0.7904,-0.7919,-0.7917,-0.7918,-0.7919,-0.7959,-0.7959,-0.7959,0,0,0,0,0,0,-0.7792,-0.7796,-0.7834,-0.7819,-0.7824,-0.7842,-0.785,-0.7853,-0.786,-0.7879,-0.7883,-0.7869,-0.7898,-0.7902,-0.7917,-0.7921,-0.7919,-0.792,-0.7958,-0.7959,-0.7959,-0.7949,0,0,0,0,0,0,-0.779,-0.7795,-0.7799,-0.7819,-0.7825,-0.7846,-0.7851,-0.7854,-0.7863,-0.7864,-0.7884,-0.7887,-0.7898,-0.7915,-0.7919,-0.7923,-0.7922,-0.7958,-0.7959,-0.7959,-0.7949,-0.7949,-0.7949,0,0,0,0,0,-0.7788,-0.7795,-0.7799,-0.7803,-0.783,-0.7846,-0.785,-0.7862,-0.7863,-0.7867,-0.788,-0.7886,-0.792,-0.7916,-0.7921,-0.7925,-0.7958,-0.7959,-0.7959,-0.7949,-0.7949,-0.7949,0,0,0,0,0,0,-0.7776,-0.7798,-0.7803,-0.7816,-0.7829,-0.7849,-0.7854,-0.7861,-0.7875,-0.7875,-0.789,-0.7895,-0.7909,-0.7919,-0.7915,-0.7938,-0.794,-0.7941,-0.7931,-0.7931,-0.793,-0.7928,-0.7923,0,0,0,0,0,-0.7774,-0.7785,-0.7804,-0.7814,-0.7821,-0.7836,-0.7844,-0.7852,-0.7867,-0.7873,-0.7886,-0.79,-0.7914,-0.7923,-0.7937,-0.7951,-0.7956,-0.7956,-0.7956,-0.7956,-0.7957,-0.7966,-0.7967,-0.796,-0.796,-0.796,0,0,-0.7772,-0.7785,-0.7791,-0.7812,-0.7823,-0.7835,-0.7841,-0.7853,-0.7862,-0.7875,-0.789,-0.79,-0.7918,-0.7932,-0.794,-0.7941,-0.796,-0.7956,-0.7956,-0.7957,-0.7966,-0.7967,-0.7967,-0.7961,-0.7961,-0.7961,0,0,-0.7773,-0.7784,-0.7794,-0.7805,-0.7822,-0.7833,-0.7835,-0.7854,-0.7862,-0.7877,-0.7887,-0.7899,-0.7922,-0.7934,-0.7943,-0.795,-0.7957,-0.7954,-0.7953,-0.7962,-0.7963,-0.7963,-0.7967,-0.7967,-0.7955,-0.7955,-0.7955,0,-0.7768,-0.7786,-0.7798,-0.781,-0.7819,-0.7831,-0.7842,-0.7852,-0.7873,-0.7879,-0.788,-0.791,-0.7923,-0.7941,-0.7943,-0.795,-0.7954,-0.7952,-0.7961,-0.7962,-0.7963,-0.7966,-0.7967,-0.7955,-0.7955,-0.7955,-0.7955,0,-0.7779,-0.7791,-0.7797,-0.7817,-0.7827,-0.7838,-0.7853,-0.7862,-0.7869,-0.788,-0.7897,-0.7912,-0.7929,-0.7934,-0.7942,-0.7954,-0.7955,-0.7958,-0.7961,-0.7963,-0.7966,-0.7968,-0.7954,-0.7954,-0.7955,-0.7955,0,0,-0.7773,-0.78,-0.7802,-0.7811,-0.7831,-0.7841,-0.7854,-0.787,-0.7878,-0.7892,-0.7903,-0.7923,-0.7927,-0.7938,-0.7947,-0.7955,-0.796,-0.7958,-0.7958,-0.7958,-0.7976,-0.7973,-0.7974,-0.7965,-0.7965,-0.7966,-0.7975,0,-0.7778,-0.7799,-0.7811,-0.7828,-0.784,-0.7852,-0.7863,-0.7877,-0.7887,-0.79,-0.7912,-0.7926,-0.793,-0.7936,-0.7945,-0.7958,-0.7964,-0.7957,-0.7977,-0.7977,-0.7972,-0.7976,-0.7973,-0.798,-0.7976,-0.7976,-0.7976,0,-0.7786,-0.78,-0.7817,-0.7837,-0.7843,-0.7852,-0.7869,-0.788,-0.7897,-0.7904,-0.7916,-0.7926,-0.794,-0.7941,-0.7962,-0.7957,-0.7965,-0.7973,-0.7974,-0.7976,-0.7977,-0.7979,-0.7983,-0.7984,-0.7979,-0.7978,-0.7978,0,-0.778,-0.7803,-0.7817,-0.7825,-0.7848,-0.7854,-0.7864,-0.7881,-0.789,-0.7905,-0.7912,-0.7929,-0.7938,-0.7951,-0.7965,-0.7964,-0.7985,-0.7987,-0.7992,-0.7992,-0.7996,-0.7995,-0.8002,-0.8001,-0.8001,-0.8001,-0.8001,0,-0.7784,-0.7795,-0.7815,-0.7824,-0.7837,-0.7851,-0.7864,-0.7875,-0.7889,-0.7901,-0.7912,-0.7923,-0.7941,-0.7954,-0.7966,-0.7982,-0.7986,-0.7993,-0.7995,-0.7992,-0.7991,-0.7998,-0.7998,-0.8001,-0.8001,-0.8001,-0.8001,0,-0.778,-0.7794,-0.781,-0.7831,-0.7836,-0.7845,-0.7863,-0.7872,-0.7884,-0.7898,-0.7903,-0.7921,-0.7938,-0.7953,-0.7975,-0.7983,-0.7999,-0.8002,-0.7993,-0.7995,-0.7999,-0.7999,-0.8011,-0.8013,-0.801,-0.801,-0.801,0,-0.7782,-0.779,-0.7812,-0.782,-0.783,-0.7843,-0.7853,-0.7868,-0.7878,-0.7898,-0.7906,-0.7923,-0.7937,-0.7963,-0.7979,-0.7997,-0.8001,-0.8004,-0.8003,-0.8,-0.8002,-0.8001,-0.8002,-0.8004,-0.8003,-0.8003,-0.8003,0,-0.7784,-0.779,-0.7804,-0.782,-0.7832,-0.7845,-0.7859,-0.7866,-0.7884,-0.7895,-0.7911,-0.7923,-0.7945,-0.7963,-0.7982,-0.7993,-0.8002,-0.8003,-0.8006,-0.8002,-0.7996,-0.8,-0.7993,-0.8003,-0.8003,-0.8003,-0.8003,-0.8003,-0.7783,-0.7791,-0.7808,-0.7823,-0.7835,-0.7848,-0.7858,-0.7871,-0.7885,-0.7905,-0.7913,-0.793,-0.7948,-0.7974,-0.7986,-0.8,-0.8002,-0.8005,-0.8006,-0.8006,-0.8006,-0.7994,-0.8004,-0.8004,-0.8004,-0.8004,-0.8004,0,-0.7786,-0.7797,-0.7811,-0.783,-0.7842,-0.7849,-0.7865,-0.7875,-0.789,-0.7905,-0.7919,-0.7939,-0.7957,-0.7974,-0.7992,-0.8001,-0.8005,-0.8005,-0.8005,-0.8007,-0.8003,-0.7999,-0.8001,-0.8001,-0.8001,-0.8001,-0.8001,-0.8001,-0.7789,-0.7803,-0.7812,-0.7834,-0.7845,-0.7862,-0.7871,-0.7883,-0.7896,-0.7917,-0.7932,-0.7943,-0.796,-0.7979,-0.7996,-0.8001,-0.8007,-0.8006,-0.8012,-0.8008,-0.8008,-0.8008,-0.8004,-0.8007,-0.8007,-0.8015,-0.8015,-0.8015]},{"header":{"parameterUnit":"m.s-1","parameterCategory":1,"la1":30.2991,"la2":30.254,"lo1":-89.0895,"lo2":-89.0444,"dy":0.0017,"dx":0.0017,"nx":28,"ny":28,"refTime":"2025-03-17T09:00:00:Z","depth":0,"parameterNumber":3,"parameterNumberName":"V-component_of_WINDS"},"data":[0,0,0,0,0,0,0,0,0,0,0,0,0,0,0,0,0,0,0,0,0,0,0,0,0,0,0,0,0,0,0,0,0,0,0,0,0,0,0,0,0,0,0,0,0,0,0,0,0,0,0,0,0,0,0,0,0,0,7.7134,7.7134,0,7.7194,7.7194,7.7195,7.7117,7.7114,7.7112,7.7109,7.7165,7.7169,7.7173,0,0,0,0,0,0,0,0,0,0,0,0,0,7.6945,7.6949,7.7134,7.7134,7.7135,7.7193,7.7194,7.7195,7.7118,7.7114,7.7111,7.7108,7.7163,7.7168,7.7173,0,0,0,0,0,0,0,0,0,0,0,0,0,7.7018,7.695,7.7133,7.7104,7.7102,7.7193,7.7194,7.7195,7.7118,7.7114,7.711,7.7106,7.7162,7.7168,7.7174,7.7296,0,0,7.7192,7.7195,0,0,0,0,0,0,0,0,7.7014,7.7025,7.7107,7.7106,7.7104,7.7144,7.7148,7.7229,7.7119,7.7112,7.7109,7.7104,7.7161,7.7167,7.7187,7.7298,7.7301,7.7193,7.7197,7.7199,7.7201,0,0,0,0,0,0,0,7.7009,7.7022,7.7157,7.7109,7.7106,7.7085,7.7091,7.7163,7.7159,7.7112,7.7107,7.7115,7.7159,7.7181,7.7188,7.7301,7.7193,7.7198,7.7202,7.7204,7.7512,7.7517,0,0,0,0,0,0,7.7009,7.7019,7.7155,7.7159,7.7048,7.7092,7.7098,7.7135,7.7158,7.7158,7.7119,7.7111,7.7173,7.7181,7.7189,7.7331,7.7199,7.7205,7.7209,7.7508,7.7513,7.7518,0,0,0,0,0,0,7.7005,7.7022,7.7153,7.7087,7.7102,7.71,7.7142,7.7138,7.7161,7.7163,7.7161,7.7143,7.717,7.7181,7.7269,7.7332,7.7208,7.7213,7.7503,7.751,7.7516,7.7617,0,0,0,0,0,0,7.7,7.7021,7.7069,7.7089,7.7106,7.7234,7.7145,7.7143,7.7172,7.7163,7.7185,7.7185,7.7167,7.7261,7.7276,7.7338,7.7218,7.7497,7.7506,7.7514,7.7608,7.7626,7.7642,0,0,0,0,0,7.6993,7.7094,7.7072,7.7089,7.7167,7.7238,7.7248,7.7227,7.7178,7.7224,7.7225,7.7184,7.7323,7.727,7.7287,7.7352,7.7493,7.7503,7.7513,7.76,7.7623,7.7642,0,0,0,0,0,0,7.708,7.7096,7.7071,7.7182,7.721,7.7225,7.7283,7.7252,7.7293,7.7282,7.7254,7.7259,7.7353,7.7362,7.7303,7.7469,7.7399,7.7413,7.746,7.7482,7.7498,7.7493,7.7223,0,0,0,0,0,7.7112,7.7171,7.7181,7.7278,7.7293,7.7286,7.7317,7.7299,7.7325,7.7336,7.7343,7.7369,7.7417,7.745,7.7496,7.761,7.7611,7.7662,7.7679,7.7693,7.7705,7.7762,7.7784,7.7551,7.7551,7.7551,0,0,7.7178,7.7195,7.7233,7.7296,7.7315,7.7374,7.7296,7.7363,7.7405,7.7345,7.7429,7.7436,7.7462,7.7563,7.7608,7.7572,7.777,7.7706,7.7717,7.7721,7.7775,7.7797,7.7816,7.7558,7.7557,7.7556,0,0,7.7329,7.7349,7.743,7.7451,7.7481,7.7476,7.7496,7.7516,7.7518,7.7603,7.7558,7.7607,7.7694,7.7713,7.7734,7.7892,7.7854,7.7908,7.7995,7.8052,7.807,7.8086,7.8139,7.8159,7.792,7.792,7.792,0,7.7407,7.7496,7.7476,7.7545,7.7572,7.7522,7.7603,7.7623,7.7666,7.7685,7.7646,7.7752,7.7766,7.7869,7.7908,7.7928,7.7947,7.7904,7.807,7.8086,7.81,7.815,7.8171,7.7926,7.7925,7.7925,7.7924,0,7.7589,7.7651,7.7713,7.7757,7.7792,7.7866,7.7854,7.7891,7.7871,7.7869,7.7954,7.7969,7.8016,7.804,7.802,7.814,7.8117,7.8075,7.8003,7.8129,7.8175,7.8195,7.7935,7.7932,7.7931,7.7929,0,0,7.7794,7.7826,7.7849,7.7867,7.7897,7.7943,7.8014,7.8061,7.8092,7.8124,7.818,7.8254,7.8215,7.8239,7.8221,7.8271,7.8391,7.8222,7.8222,7.825,7.852,7.855,7.8573,7.8367,7.8371,7.8373,7.8517,0,7.7943,7.8068,7.8051,7.8169,7.8224,7.8178,7.8239,7.8263,7.8263,7.8308,7.8307,7.8359,7.8305,7.8318,7.8366,7.8366,7.8444,7.8356,7.8416,7.8418,7.8408,7.8597,7.8629,7.8764,7.8535,7.8538,7.8541,0,7.8132,7.8171,7.8296,7.8315,7.8337,7.8393,7.8434,7.8479,7.8503,7.85,7.8527,7.8499,7.8567,7.8497,7.8589,7.853,7.8553,7.8557,7.8562,7.8564,7.8485,7.8602,7.8807,7.8826,7.857,7.8567,7.8565,0,7.8266,7.8349,7.8434,7.8452,7.8477,7.8516,7.8528,7.8549,7.8578,7.8613,7.8631,7.8673,7.8696,7.8728,7.8712,7.8663,7.8806,7.8735,7.8802,7.8802,7.8831,7.8829,7.904,7.8852,7.8852,7.8852,7.8851,0,7.8431,7.8508,7.8494,7.8546,7.863,7.8609,7.8692,7.8698,7.8717,7.8767,7.873,7.8777,7.8754,7.8799,7.8787,7.8863,7.8874,7.8871,7.8866,7.8873,7.8873,7.8886,7.8875,7.8857,7.8856,7.8855,7.8854,0,7.8593,7.8587,7.8676,7.8693,7.8699,7.876,7.8773,7.882,7.8817,7.8881,7.8894,7.889,7.8941,7.8928,7.8984,7.8976,7.9071,7.9056,7.9063,7.9058,7.9124,7.9117,7.9348,7.9376,7.9174,7.9176,7.9177,0,7.8698,7.8756,7.878,7.8811,7.8826,7.8878,7.8907,7.8889,7.892,7.8952,7.8994,7.9043,7.908,7.9163,7.9163,7.9205,7.9188,7.9267,7.9194,7.9198,7.9186,7.9181,7.9186,7.928,7.9282,7.9284,7.9286,0,7.8883,7.8877,7.8922,7.8966,7.9002,7.9035,7.9064,7.9092,7.9075,7.9112,7.9164,7.9193,7.925,7.9297,7.9335,7.9345,7.9312,7.9309,7.9326,7.9332,7.9332,7.933,7.9099,7.9303,7.9301,7.93,7.9299,7.9299,7.9018,7.9066,7.909,7.914,7.916,7.9188,7.9233,7.9236,7.928,7.9326,7.9312,7.9371,7.9391,7.944,7.9454,7.9498,7.9468,7.9494,7.95,7.9506,7.9513,7.9328,7.9506,7.9505,7.9505,7.9504,7.9504,0,7.9198,7.9211,7.9258,7.93,7.9339,7.9307,7.9337,7.9371,7.9424,7.9447,7.9485,7.9544,7.9589,7.9593,7.9635,7.967,7.9655,7.9681,7.9677,7.9679,7.9539,7.9518,7.9692,7.9692,7.9692,7.9692,7.9692,7.9692,7.9297,7.9376,7.9373,7.9461,7.9473,7.9532,7.9551,7.9576,7.9594,7.9662,7.97,7.9703,7.9717,7.976,7.9799,7.9799,7.9815,7.9846,7.984,7.9708,7.9689,7.9671,7.9651,7.985,7.985,7.9975,7.9977,7.9978]}]]